Location: Cuguron
(43.0994°N, 0.5363°E)
Time: 08:18:53
(UTC+00:00)

NOSS 3-4 (A) - Pass Details

Date: 15 May 2026
Orbit: 769 x 1442 km, 63.4° (Epoch: 10 January)

Event Time Altitude Azimuth Distance (km) Brightness Sun altitude
Rises 20:40:28 0° 326° (NW) 3,670 8.2 -13.6°
Reaches altitude 10° 20:43:01 10° 332° (NNW) 2,811 7.1 -13.9°
Maximum altitude 20:49:28 47° 46° (NE) 1,486 4.4 -14.8°
Enters shadow 20:55:06 18° 112° (ESE) 2,673 5.2 -15.5°
